User: anonymous   Login
Location: Poughquag
(41.6090°N, 73.6820°W)
Time: 04:31:31
(UTC-04:00)
Language:

CAS-6 - Orbit

View from above orbital plane
View from above orbital plane
View from above satellite
View from above satellite

Ground track
Ground track

The orbit data is extracted from the following two-line orbital elements,

1 44881U 19093C   24202.89335358  .00002571  00000-0  31571-3 0  9996
2 44881  97.8277 279.0269 0013719 207.5071 152.5419 14.83873950248048
Epoch (UTC): 20 July 2024 21:26:25
Eccentricity: 0.0013719
inclination: 97.8277°
perigee height: 607 km
apogee height: 627 km
right ascension of ascending node: 279.0269°
argument of perigee: 207.5071°
revolutions per day: 14.83873950
mean anomaly at epoch: 152.5419°
orbit number at epoch: 24804

The dashed part of the orbit path shows where the satellite is in the earth's shadow,  

DLR